sat.trackr.live / text

‹ back to catalog

AETHER-4

NORAD 67375 · 2026-004N

PAYLOAD ACTIVE UNKNOWN

§ Identity

Operator
Country
CA
Launch date
2026-01-11
Launch site
AFWTR
Launch vehicle
Mass (kg)
RCS (m²)

External: N2YO · Heavens-Above · Gunter

§ Orbital elements

Epoch: 2026-09-20T17:11:35.880000Z

Period
96.91 min
Inclination
97.8110°
Eccentricity
0.0001385
Mean motion
14.85941560 rev/d
Perigee alt
609.7 km
Apogee alt
611.6 km
Semi-major
6,988.8 km
B*
5.0760e-5
RAAN
260.6218°
Arg perigee
152.6199°
Mean anomaly
207.5090°
Rev number
3,748

§ Raw data

AETHER-41 67375U 26004N   26263.71638750  .00000390  00000+0  50760-4 0  99992 67375  97.8110 260.6218 0001385 152.6199 207.5090 14.85941560 37489

JSON: /api/v1/satellites/67375 · /tle

For live sub-satellite position, see the globe view (requires WebGL).

§ Visibility from observer

Set your observer location to see the next 7 days of passes ≥ 10°. The values pass through the URL so the page stays shareable.

No JS? Fill the form by hand. The geolocation button needs JavaScript.